Home   Weather   Luanda   Past weeks

Flag for Angola Past Weather in Luanda, Angola — Yesterday and Last 2 Weeks

Now
77 °F

Passing clouds.


Feels Like: 78 °F
Forecast: 76 / 90 °F
Wind: 9 mph from Southeast

Location: Luanda Airport

Current Time: Apr 30, 2017 at 4:19:49 am

Latest Report: Apr 30, 2017 at 2:00 am


Visibility: N/A

Pressure: 29.86 "Hg

Humidity: 83%

Dew Point: 72 °F

Location of LuandaLocation

Past Weather in Luanda — Graph

°F

Luanda Temperature Yesterday

Maximum temperature yesterday: 86 °F (at 11:00 am)
Minimum temperature yesterday: 77 °F (at 6:00 am)
Average temperature yesterday: 82 °F

High & Low Weather Summary for the Past Weeks

 TemperatureHumidityPressure
High91 °F (Apr 20, 3:00 pm)100% (Apr 19, 2:00 am)30.04 "Hg (Apr 19, 2:00 am)
Low70 °F (Apr 25, 6:00 am)49% (Apr 25, 12:00 pm)29.68 "Hg (Apr 16, 4:00 pm)
Average80 °F81%29.83 "Hg
* Reported Apr 15 2:00 am — Apr 30 2:00 am, Luanda, Weather by CustomWeather, © 2017

Note: Actual official high and low records may vary slightly from our data, if they occured in-between our weather recording intervals... More about our weather records

Advertising

Luanda Weather History for the Previous 24 Hours

Scroll right to see more
 ConditionsComfort  
Time TempWeatherWind HumidityBarometerVisibility
2:00 am
Sun, Apr 30
77 °FPassing clouds.9 mph83%29.86 "HgN/A
12:00 am77 °FPassing clouds.9 mph89%29.89 "HgN/A
11:00 pm
Sat, Apr 29
79 °FPassing clouds.12 mph84%29.89 "HgN/A
6:00 pm81 °FPassing clouds.9 mph84%29.80 "HgN/A
5:00 pm84 °FScattered clouds.14 mph70%29.80 "HgN/A
4:00 pm86 °FScattered clouds.13 mph66%29.80 "HgN/A
3:00 pm86 °FBroken clouds.10 mph66%29.83 "HgN/A
2:00 pm84 °FBroken clouds.10 mph74%29.86 "HgN/A
1:00 pm84 °FBroken clouds.12 mph74%29.89 "HgN/A
12:00 pm86 °FBroken clouds.6 mph70%29.92 "HgN/A
11:00 am86 °FPartly sunny.5 mph70%29.95 "HgN/A
10:00 am84 °FBroken clouds.6 mph74%29.95 "HgN/A
9:00 am81 °FBroken clouds.6 mph79%29.95 "HgN/A
8:00 am79 °FPartly sunny.5 mph89%29.95 "HgN/A
7:00 am79 °FScattered clouds.5 mph89%29.92 "HgN/A
6:00 am77 °FPartly cloudy.2 mph94%29.92 "HgN/A
5:00 am79 °FPartly cloudy.5 mph89%29.89 "HgN/A
Weather by CustomWeather, © 2017

See weather overviewHow to use our weather pages